Погода в Горжовице

Чехия     49°50′10″N   13°54′11″E
темп.,
°C
ветер,
м/с
пор.,
м/с
влажн.,
%
обл.,
%
осадки,
мм/ч
давл.,
гПа
погр.,
м
24 января, вс
вс2401:00−2ю1296100 0.3 99728
04:00−3ю2297100 0.0 99632
07:00−3ю2397100 0.0 99681
10:000юз51196100 2.4 997849
13:00−1зюз7138295 2.7 9971128
16:00−1зюз7138591 0.1 9981088
19:00−1з6129183 0.3 999717
22:00−1з5119385 0.3 1000738
25 января, пн
пн2501:00−2з5119182 0.4 1001571
04:00−4з499535 0.0 1001239
07:00−6з249632 0.0 100294
10:00−3з258961 0.0 1004224
13:00−1зсз248080 0.0 1003452
16:00−2зсз1389100 0.0 1004266
19:00−3зсз2495100 0.0 1006129
22:00−5зсз129598 0.0 100830
26 января, вт
вт2601:00−5з249492 0.0 1011121
04:00−5з389261 0.0 1012213
07:00−5з5128934 0.0 1013405
10:00−3зюз8158667 0.1 1013855
13:00−1з8148481 0.4 10131007
16:00−1з8148097 0.1 10131086
19:00−2з8158699 0.2 1014969
22:00−2з71489100 0.7 1015939
27 января, ср
ср2701:00−2зсз51188100 1.0 1016602
04:00−4зсз51287100 0.0 1017514
07:00−4з6138985 0.0 1018580
10:00−2з6128772 0.0 1018710
13:00−1з6118286 0.0 1017850
16:00−1з6118598 0.1 1016906
19:00−2з6138692 0.1 1017776
22:00−3з6138987 0.1 1017663
28 января, чт
чт2801:00−3з5129094 0.1 1017612
04:00−3з4109491 0.1 1016417
07:00−5зюз399574 0.1 1015271
10:00−2зюз368659 0.0 1012394
13:000ююз248470 0.0 1008463
16:00−1ююв2590100 0.1 1004324
19:00−1ююв2498100 2.0 1002191
22:000юз2598100 1.4 1000187